{"data":{"norad_id":46486,"intl_designator":"2020-068A","name":"GONETS-M 17","alt_names":[],"object_type":"PAYLOAD","status":"ACTIVE","operator":null,"country":"CIS","launch_date":"2020-09-28","launch_site_code":"PLMSC","launch_vehicle":null,"mission":null,"orbit_class":"UNKNOWN","rcs_meters":null,"size_class":null,"mass_kg":null,"dimensions":null,"purposes":[],"wikipedia_slug":null,"has_3d_model":false,"image_url":null,"decayed_at":null,"tle_current":{"epoch":"2026-09-20T02:47:05.843904Z","epoch_age_seconds":106856,"freshness":"FRESH","line1":"1 46486U 20068A   26263.11603986  .00000050  00000+0  28876-3 0  9995","line2":"2 46486  82.4949 288.4515 0022478 185.1361 174.9492 12.42887165270950","mean_motion":12.42887165,"eccentricity":0.0022478,"inclination_deg":82.4949,"raan_deg":288.4515,"arg_perigee_deg":185.1361,"mean_anomaly_deg":174.9492,"bstar":0.00028876,"rev_number":27095,"period_min":115.85927029828,"perigee_km":1476.6919708702,"apogee_km":1512.0836935058,"semimajor_km":7872.524832188,"source":"CELESTRAK","updated_at":"2026-09-20T09:00:14.759431Z"}}}